STARLINK-32493, 62025

Orbit data source: Space-Track

STARLINK-32493, 62025 is a payload satellite owned by SpaceX/Seattle (US) in LEO that was launched on Mon, 18 Nov 2024 UTC via an FALCON 9 launch vehicle from the Air Force Western Test Range (AFWTR). Payloads include a variety of satellites, spacecraft, and rockets equipped with specific instruments for various scientific and technological missions. These include communications satellites like Starlink; space stations such as the ISS; scientific satellites like the Hubble; Earth observation satellites from companies like Planet Labs, Umbra, and HawkEye 360; GPS; miniature CubeSats for education and research; and military/defense satellites.

Loading next visibility...
STARLINK-32493 details
Identifier
62025, 2024-213T
Orbit
LEO
Last TLE update6 hours ago
Origin
Flag of USSpaceX/Seattle (US)
ManufacturerSpaceX/Seattle
MissionOperational spacecraft
Bus & MotorSTARLINK V2M, Unknown motor
Mass730 kg wet, ~700 kg dry
Launch date (UTC)
2024-11-18 (1 month ago)
Launch vehicle
FALCON 9
Launch site
Air Force Western Test Range (AFWTR)
Object type
Payload
Rocket body
Debris
Shape & HBRUnknown
Radar Cross SectionLarge (>1 m²)

Expand to show TLE details & history

TLE from 6 hours ago
0 STARLINK-32493
1 62025U 24213T   24361.54693297  .00000684  00000-0  27102-4 0  9992
2 62025  53.1624  48.9089 0001666  90.1900 269.9296 15.39612901  5997
Epoch: 2024-12-26T13:07Z
Definitive object data (Epoch: 2024-12-26T13:07:35.008Z)
Latitude-0.00001°
Longitude116.48826°
Altitude448.158 km
Speed7.645 km/s
True Right ascension03h 15m 38s
True Declination0° 00' 00"
Sunlit
Object was in full shadow at TLE epoch
Visualization TLE readout
Latitude-20.32506°
Longitude99.26811°
Altitude453.423 km
Speed7.64 km/s
Apparent Right ascension04h 01m 39s
Apparent Declination-34° 17' 24"
Sunlit
Object is in daylight
Visualization observer readout
Local Sidereal Time18:37:28
Azimuth92.189° ESE
Elevation-58.679°
Doppler factor1
Orbital elements
Apogee altitude448.647 km
Perigee altitude446.373 km
Semi-major axis6,825.647 km
Eccentricity0.0001666
Inclination53.1624°
RAAN48.9089°
Arg. of periapsis90.19°
True anomaly269.91051°
Mean anomaly269.9296°
Eccentric anomaly269.92005°
Mean motion3.84882 °/min
BSTAR0.000027102
Orbital period93.54 mins
Loading maneuver chart data...
Loading historical data...
Loading historical data...
Loading historical data...
Loading historical data...
Loading historical data...
Loading historical data...
Loading historical data...

STARLINK-32493 Visibility forecast

Observer location: undefined°, undefined

Span
Click to sort rows by Start time (UTC) header in descending order
Start Az.
Max El. time (UTC)
Max El. Az.
Max El.
End time (UTC)
End Az.
4 mins2024-12-27 06:28:50.947Z253.188° W2024-12-27 06:29:50.947Z282.33° WNW38.743°2024-12-27 06:32:50.947Z40.452° NE
5 mins2024-12-27 13:00:50.947Z305.381° NW2024-12-27 13:02:50.947Z225.579° WSW44.4°2024-12-27 13:05:50.947Z135.973° SSE
|